Location: Street
(51.1247°N, 2.7429°W)
Time: 08:19:20
(UTC+01:00)

PCSat - Pass Details

Date: 28 March 2023
Orbit: 783 x 794 km, 67.1° (Epoch: 29 May)

Event Time Altitude Azimuth Distance (km) Brightness Sun altitude
Rises 02:41:10 0° 318° (NW) 3,303 13.0 -33.1°
Reaches altitude 10° 02:43:45 10° 311° (NW) 2,370 12.2 -32.9°
Enters shadow 02:43:54 11° 310° (NW) 2,315 12.1 -32.9°
